Location: Marcé
(47.5801°N, 0.3280°W)
Time: 22:10:50
(UTC+01:00)

Tiangong - Pass Details

Date: 25 October 2021
Orbit: 379 x 384 km, 41.5° (Epoch: 06 December)

Event Time Altitude Azimuth Distance (km) Brightness Sun altitude
Rises 20:59:41 0° 262° (W) 2,273 6.4 -21.6°
Reaches altitude 10° 21:02:09 10° 243° (WSW) 1,414 4.7 -22.0°
Enters shadow 21:04:06 18° 206° (SSW) 1,017 3.4 -22.3°
